User: anonymous   Login
Location: Churchill
(58.7670°N, 94.1670°W)
Time: 04:03:26
(UTC-05:00)
Language:

Cosmos 2142 Rocket - Orbit

View from above orbital plane
View from above orbital plane
View from above satellite
View from above satellite

Ground track
Ground track

The orbit data is extracted from the following two-line orbital elements,

1 21231U 91029B   16179.92911530 +.00000035 +00000-0 +19676-4 0  9995
2 21231 082.9512 011.0769 0035967 138.0193 331.1438 13.75717458264819
Epoch (UTC): 27 June 2016 22:17:55
Eccentricity: 0.0035967
inclination: 82.9512°
perigee height: 952 km
apogee height: 1005 km
right ascension of ascending node: 11.0769°
argument of perigee: 138.0193°
revolutions per day: 13.75717458
mean anomaly at epoch: 331.1438°
orbit number at epoch: 26481

The dashed part of the orbit path shows where the satellite is in the earth's shadow,  

DLR